TZINGHUA 1

Satellite information

Favourite Embed

Satellite Type and Status

PAYLOADIN ORBIT

Key statistics

Satellite TZINGHUA 1 at a glance.

Uptime

9300

Days in orbit

Revolutions

≈ 14.7

Per day

Orbit

SSO

Sun Synchronous Orbit

Inclination

97.9

Latest

Satellite identification and parameters

Extended collection of information and parameters for TZINGHUA 1.

Object identification

Identified? True

Debris? False

Object name: TZINGHUA 1

International designator: 2000-033B

Object number (NORAD): 26385

Object ID (CCSDS): 26385

Country: PEOPLES REPUBLIC OF CHINA (PRC)

Current information (Y/N): Y

RCS size: MEDIUM

Orbital parameters

Period: 98.099 minutes

Inclination: 97.8584 deg

SMA: 7045.888 km

Apoapsis: 677.67 km

Periapsis: 657.835 km

RAAN: 323.0491 deg

Eccentricy: 0.0014076

Argument of periapsis: 338.8091 deg

Mean anomaly: 21.2529 deg

Mean motion: 14.67909194 rev/day

Mean motion (dot): 0.00001381 rev/day2

B* drag term: 0.0002493309 1/REarth

Two-line elements (TLE)

Creation date: Dec. 14, 2025, 3:07 a.m.

Reference frame: TEME

Reference center: EARTH

Epoch: Dec. 13, 2025, 12:57 p.m. UTC

TLE line 0: 0 TZINGHUA 1

TLE line 1: 1 26385U 00033B 25347.54019116 .00001381 00000-0 24933-3 0 9995

TLE line 2: 2 26385 97.8584 323.0491 0014076 338.8091 21.2529 14.67909194359647

Live tracking on map

Real-time ground track for satellite TZINGHUA 1.

In-orbit conjunctions

There are no conjunctions computed for TZINGHUA 1, at the moment. Check back to stay up to date, as we update our databases every day.

Go to all conjunctions

Associated space launch

Civilian navigation satellite equivalent to the purely military Parus

TZINGHUA 1 was lifted into orbit during the mission ‘Kosmos-3M | Nadezhda 9’, on board a Kosmos-3M space rocket.

The launch took place on June 28, 2000, 10:37 a.m. from 132/1 (132L).

For more information about the launch, click the button.

Launch to space Kosmos-3M | Nadezhda 9
Kosmos-3M | Nadezhda 9

Agency: N/A

Status: Launch Successful

Launch date: June 28, 2000, 10:37 a.m. UTC

Rocket: Kosmos-3M

Launch pad: 132/1 (132L)

Location: Plesetsk Cosmodrome, Russian Federation

...

Latest news about this satellite

There are no fresh news available about this satellite. Check back as we update our databases every day.


Newsletter sign-up

Weekly statistics, charts and insights to help you stay on top of the space industry.